Regional Weather Roundup
Issued by NWS Albany, NY

Home | Current Version | Previous Version | Text Only | Print | Product List | Glossary On
Versions: 1 2 3 4 5 6 7 8 9 10 11 12 13 14 15 16 17 18 19 20 21 22 23 24 25 26 27 28 29 30 31 32 33 34 35 36 37 38 39 40 41 42 43 44 45 46 47 48 49 50
000
ASUS41 KALY 131310
RWRALY

NEW YORK STATE HOURLY WEATHER ROUNDUP
NATIONAL WEATHER SERVICE ALBANY NY
800 AM EST WED DEC 13 2017

NOTE: "FAIR" INDICATES FEW OR NO CLOUDS BELOW 12,000 FEET WITH NO
SIGNIFICANT WEATHER AND/OR NO OBSTRUCTIONS TO VISIBILITY.

NYZ032-033-038>043-046>054-057>066-NYZ062>081-082-084-131400-
EAST


CITY           SKY/WX    TMP DP  RH WIND       PRES   REMARKS
ALBANY         FLURRIES  17   7  64 W14G22    29.41S WCI   3
GLENS FALLS    PTCLDY    15   6  67 W5        29.37R WCI   8
POUGHKEEPSIE   PTCLDY    18   2  49 W17G24    29.48R WCI   3
NEWBURGH       PTCLDY    18   7  62 NW20G28   29.48R WCI   1
MONTGOMERY     CLEAR     18   3  52 W10G26    29.47R WCI   6
WHITE PLAINS   PTCLDY    19   3  49 W20G38    29.47R WCI   3
ISLIP          PTCLDY    22   5  48 W18G26    29.49R WCI   7
NEW YORK CITY  PTCLDY    22   7  52 W18G31    29.54R WCI   7
CENTRAL PARK   PTCLDY    20   5  52 W14G29    29.56R WCI   7
$$

NYZ005>009-017-018-044>046-055-056-131400-
CENTRAL


CITY           SKY/WX    TMP DP  RH WIND       PRES   REMARKS
FULTON         SNOW      16  12  84 NW15      29.53R VSB 1/2 WCI   1
SYRACUSE       SNOW      13  12  96 W9        29.52S VSB 1/2 WCI   1
ROME           LGT SNOW  13   8  81 NW16      29.49R WCI  -3
ELMIRA         CLOUDY    16   5  62 W18G30    29.56R WCI   0
BINGHAMTON     SNOW      10   7  87 W15       29.44R VSB 1/2 WCI  -7
$$

NYZ026>034-041>043-087-131400-
NORTH


CITY           SKY/WX    TMP DP  RH WIND       PRES   REMARKS
WATERTOWN      CLOUDY     9   2  73 NW16      29.53S HAZE    WCI  -8
FORT DRUM      NOT AVBL
OGDENSBURG     LGT SNOW   9   4  83 W14       29.48F WCI  -8
MASSENA        CLOUDY     9   5  84 W13       29.46R WCI  -7
SARANAC LAKE   CLOUDY     5   1  83 W10       29.28F FOG     WCI -10
PLATTSBURGH    CLOUDY    15   4  61 W9G17     29.34S WCI   3
$$

NYZ001>004-010>016-019>021-085-131400-
WEST


CITY           SKY/WX    TMP DP  RH WIND       PRES   REMARKS
NIAGARA FALLS  CLOUDY    16   5  62 W17G24    29.70S WCI   0
BUFFALO        PTCLDY    10   3  73 W13       29.69S WCI  -5
DUNKIRK        CLOUDY    18  10  71 W15G25    29.74F WCI   4
JAMESTOWN      LGT SNOW  14  10  84 NW10      29.66R FOG     WCI   1
WELLSVILLE     LGT SNOW  12   4  70 NW25G37   29.55R WCI  -8
ROCHESTER      LGT SNOW  15  11  83 NW16G25   29.62R VSB 1   WCI  -1
PENN YAN       LGT SNOW  14   5  67 W24G32    29.54S WCI  -5
$$

             KEY
       WCI = WIND CHILL INDEX
       VSB = VISIBILITY
       HX  = HEAT INDEX
$$



USA.gov is the U.S. government's official web portal to all federal, state and local government web resources and services.